Wetbulb
58.89 58.78 59.01 58.94 58.97 58.69 58.90 59.05 59.22 59.53 59.73 59.84 60.10 60.04 59.97 59.74 58.93 60.25 56.39 61.82 61.84 65.43 63.36 58.09 58.61 60.62 62.36 60.62 59.68 60.31 56.04 54.06 54.66 55.16 56.70 64.02 63.56 66.51 67.48 64.36 63.96 65.09 64.84 67.52 71.74
58.46 58.44 58.76 58.66 58.93 58.65 58.66 58.68 58.98 59.11 59.50 59.62 59.81 59.56 59.59 59.50 58.83 58.24 63.13 66.09 66.41 67.05 57.82 56.54 58.54 60.54 59.08 56.98 59.10 57.77 55.61 53.96 57.34 58.70 58.30 61.65 63.37 65.44 64.15 63.22 62.33 63.89 66.38 69.17 71.61
57.73 57.96 58.24 58.56 58.82 58.70 58.43 58.43 58.71 59.11 59.57 59.43 59.23 59.20 59.41 60.30 59.12 57.06 67.27 66.64 68.97 65.48 58.70 57.91 58.00 58.28 55.89 57.00 57.22 56.42 54.62 56.13 56.80 58.02 60.51 60.95 62.60 65.75 63.93 61.35 63.02 62.43 64.08 68.47 69.98
57.55 57.65 58.03 58.51 58.62 58.56 58.27 58.40 58.71 58.91 59.34 58.89 58.87 59.06 59.40 61.17 50.81 59.63 70.13 67.06 67.01 63.18 58.63 57.02 56.58 55.29 56.24 55.25 56.68 54.05 56.11 56.37 57.22 59.16 59.25 60.99 63.69 63.67 64.41 63.18 64.97 65.36 66.12 67.37 69.17
57.55 57.75 58.03 58.21 58.21 58.25 58.06 58.24 58.29 58.51 58.24 58.44 58.82 59.44 60.06 55.95 55.23 65.80 68.97 67.26 62.25 59.22 56.93 57.01 57.22 57.74 55.78 55.81 55.78 54.72 55.34 56.03 57.53 60.47 60.56 62.69 62.42 62.67 63.20 65.58 66.82 66.22 67.52 66.17 68.60
57.04 57.09 57.32 57.68 57.66 57.68 57.58 57.30 57.01 57.21 57.55 58.39 59.16 58.89 57.89 52.90 60.14 62.78 62.57 61.44 59.78 59.02 57.37 57.64 57.61 58.63 56.56 55.73 55.43 55.83 55.41 55.77 58.31 60.31 60.66 60.95 61.59 63.41 62.76 66.24 66.16 67.27 67.42 67.27 67.23
56.74 56.89 57.02 57.18 57.43 57.37 57.29 56.88 56.47 57.13 58.05 58.85 59.73 59.87 55.28 56.29 61.18 63.43 60.48 59.30 59.38 58.83 57.26 58.38 58.28 58.03 57.82 55.64 56.76 55.81 53.92 55.17 56.24 58.95 59.39 62.33 60.01 61.08 63.95 65.80 65.58 66.83 67.74 67.55 67.52
56.32 56.56 56.65 56.99 57.32 57.32 57.35 57.17 56.99 57.58 58.50 59.49 59.66 59.36 55.67 59.87 61.69 60.79 62.44 59.77 59.78 59.96 58.75 59.69 59.40 58.69 57.58 57.29 56.46 55.15 55.35 52.17 55.62 57.89 58.78 60.62 54.34 59.02 63.03 64.43 64.70 65.85 66.70 67.23 68.23
55.84 55.99 56.06 56.35 56.90 57.12 56.94 56.58 57.13 57.97 58.45 58.98 60.84 58.71 55.77 60.03 58.99 60.73 62.71 59.20 59.29 59.29 59.45 58.30 59.26 57.64 56.77 55.17 53.69 54.55 51.17 52.08 53.49 56.74 57.72 58.03 54.98 57.90 61.71 62.07 63.95 65.32 66.80 67.06 68.16
55.26 55.41 55.51 55.74 56.25 56.42 55.70 55.79 57.03 56.71 60.20 61.00 59.97 56.88 58.22 55.94 58.83 59.50 61.78 60.16 57.71 58.36 57.32 57.14 57.60 56.11 55.95 54.15 49.28 50.30 51.34 52.03 51.73 54.84 56.16 55.60 55.84 57.09 60.33 62.92 63.60 65.48 66.52 67.04 67.55
54.78 54.97 55.13 55.58 55.99 55.50 55.11 57.30 56.26 56.73 57.68 56.19 56.22 56.22 56.50 59.57 59.88 58.66 59.68 58.19 57.81 57.22 55.11 56.63 54.67 53.29 53.65 54.66 54.30 53.26 52.09 51.27 53.54 55.10 54.29 54.28 54.49 57.52 60.66 62.16 63.50 64.39 65.41 66.58 67.56
54.45 54.55 54.83 55.32 55.59 55.30 58.06 54.60 57.53 58.57 55.01 57.54 57.37 57.27 58.62 59.03 55.41 57.36 59.38 56.17 56.36 53.60 55.23 54.55 52.52 54.80 55.05 55.52 53.93 53.31 51.66 52.02 53.63 55.43 55.20 54.98 54.39 58.07 60.46 61.40 63.30 64.39 64.98 65.94 67.58
54.07 54.21 54.24 54.77 55.17 56.32 55.03 55.24 59.89 59.73 56.49 55.43 57.55 56.85 57.26 58.10 55.08 55.86 57.82 56.70 55.02 53.76 53.86 52.45 53.96 54.88 54.78 54.15 52.81 53.29 52.53 52.31 52.02 53.95 55.28 53.98 53.25 55.28 58.70 62.01 63.04 64.10 65.48 66.14 66.11
53.71 54.13 54.30 54.80 53.73 57.89 58.43 59.95 61.05 59.91 52.30 51.86 54.15 56.25 56.97 57.69 54.13 57.81 58.19 56.96 55.17 53.29 54.10 53.76 55.05 53.82 54.22 52.78 54.07 51.17 54.45 53.34 52.47 51.89 49.14 53.69 47.70 54.17 56.52 57.64 59.36 62.01 62.29 62.31 62.83
53.45 53.84 53.95 51.97 60.61 59.81 61.03 61.63 60.32 60.22 43.40 52.12 54.01 59.21 57.69 54.88 55.46 56.01 58.63 57.55 53.31 53.93 55.52 52.85 53.75 53.71 52.83 53.33 54.71 52.97 54.77 53.07 52.25 52.39 52.02 51.15 49.10 53.27 56.16 55.21 56.83 58.98 60.10 61.09 61.99
53.39 53.30 53.51 56.14 59.43 58.58 59.44 60.53 60.56 50.69 42.32 50.57 54.23 53.28 53.57 54.22 54.58 56.50 56.34 58.87 58.57 55.45 55.66 55.03 56.59 55.81 55.37 55.53 55.30 55.39 54.28 52.90 53.00 52.04 47.74 49.38 48.92 50.68 53.85 55.74 57.16 58.26 59.64 60.67 61.56
52.88 53.39 54.98 58.76 59.60 59.72 61.49 60.26 49.99 46.04 52.31 50.08 50.78 52.67 52.05 51.81 52.78 54.56 53.96 53.93 52.86 51.38 51.66 53.79 53.93 56.11 56.46 54.25 56.66 55.45 53.31 48.17 46.09 46.50 44.91 50.21 49.26 51.16 54.41 56.85 57.33 57.53 58.99 60.44 61.64
51.90 52.83 57.18 60.25 61.82 60.54 61.08 55.22 45.58 49.45 50.93 54.22 53.50 52.84 49.81 52.31 52.35 53.00 53.07 52.04 54.22 54.88 52.42 49.80 48.40 54.17 55.90 54.94 53.42 53.30 53.55 47.31 41.16 42.51 44.62 50.34 47.61 51.08 55.39 57.47 58.89 59.51 60.08 60.73 62.09
50.59 61.70 61.45 63.65 62.03 62.46 58.20 49.33 49.61 51.39 52.41 51.26 52.74 49.74 49.71 51.45 51.78 52.40 52.26 52.12 53.29 56.51 51.72 50.08 49.48 55.59 55.48 56.40 56.11 53.53 51.60 54.36 50.15 50.04 46.97 48.36 50.68 54.78 55.50 55.56 57.18 57.78 58.79 59.81 61.79
60.56 60.20 60.91 62.65 63.48 61.44 55.08 48.06 52.16 53.15 52.62 52.46 50.75 52.25 48.84 50.68 50.51 51.34 51.48 54.15 53.79 56.12 58.92 54.81 49.45 54.53 54.92 57.01 56.74 55.61 55.77 50.20 51.80 42.94 41.68 46.85 47.47 49.37 52.53 54.26 55.94 57.13 58.15 59.51 62.26
60.82 55.77 61.41 63.66 62.24 57.87 51.01 51.31 51.65 53.39 53.95 50.97 50.87 52.48 51.23 51.37 51.81 50.77 50.73 55.18 56.90 55.72 58.09 57.91 56.00 53.45 55.26 54.08 53.54 53.98 53.29 52.88 52.81 50.28 43.92 42.91 46.53 53.91 54.28 55.48 56.55 58.17 59.51 59.58 60.23
58.32 53.00 62.17 62.86 55.07 56.85 52.42 52.40 51.47 52.78 54.58 53.43 54.92 53.97 53.65 54.49 52.53 51.61 50.64 54.88 58.75 57.79 54.69 58.00 56.93 51.82 52.32 55.58 56.34 55.15 53.61 52.64 49.11 46.66 49.17 47.53 47.47 55.61 56.29 56.98 58.57 58.80 59.06 60.02 60.51
55.50 58.42 63.42 62.09 50.48 51.38 53.90 52.62 53.90 52.25 51.88 53.59 53.71 55.39 57.12 55.27 53.86 55.04 55.17 57.95 58.61 57.21 57.04 57.96 55.09 49.87 50.39 53.59 55.34 53.74 53.62 54.22 53.11 52.67 48.39 45.41 47.40 56.27 57.29 57.55 58.51 58.27 59.05 59.09 59.54
55.51 53.12 58.09 58.04 57.93 54.50 52.91 51.94 51.31 54.07 52.80 55.18 55.30 56.17 55.79 54.14 58.00 55.37 55.36 56.42 58.40 58.75 55.91 60.00 56.42 52.78 48.22 50.83 54.02 51.31 52.19 52.76 52.48 48.78 48.59 48.68 50.19 53.53 55.63 56.17 57.69 58.85 58.83 58.76 59.29
57.02 55.33 56.30 50.92 52.70 54.11 55.13 52.54 50.50 50.03 54.43 56.17 54.52 54.67 53.92 52.42 53.65 54.89 56.20 56.65 57.69 55.76 58.74 60.98 52.96 54.09 52.73 52.84 52.64 52.19 51.22 51.11 50.69 51.52 48.31 50.03 50.57 53.87 56.00 56.43 57.31 58.14 58.35 58.12 58.34
55.69 57.07 57.71 56.70 55.74 54.85 51.41 52.30 50.84 51.94 54.22 53.95 54.49 54.58 55.31 54.07 55.01 53.17 56.49 57.41 56.27 58.25 58.61 58.41 54.45 54.63 51.52 52.60 52.47 50.64 51.50 51.87 51.47 51.61 51.65 51.84 51.51 56.80 57.63 57.76 57.41 57.93 57.96 58.12 58.65
59.88 60.29 57.80 50.41 55.28 54.03 53.39 53.74 52.61 53.72 54.66 55.57 56.66 56.42 55.09 56.38 59.06 60.63 61.31 60.54 59.74 58.52 56.60 56.71 55.99 53.11 49.20 51.76 51.28 48.23 51.05 51.38 51.93 53.53 53.02 49.61 54.04 57.56 56.40 56.70 57.84 58.31 58.55 58.33 58.95
MSLP
1019.48 1019.19 1019.30 1019.11 1019.00 1018.74 1018.53 1018.26 1018.25 1017.93 1017.59 1017.18 1016.67 1016.25 1015.85 1015.47 1014.43 1013.71 1012.17 1011.33 1011.16 1011.59 1011.79 1010.78 1010.38 1009.90 1009.46 1008.76 1008.99 1008.70 1006.97 1006.33 1006.72 1007.03 1007.41 1008.57 1009.08 1010.15 1010.70 1010.78 1011.25 1011.62 1011.76 1011.99 1013.11
1019.33 1019.14 1019.16 1018.91 1018.84 1018.58 1018.28 1018.13 1018.22 1017.85 1017.46 1017.07 1016.53 1016.14 1015.82 1015.44 1013.92 1012.07 1011.34 1011.31 1011.64 1011.68 1010.74 1010.07 1009.59 1009.40 1008.85 1008.54 1008.60 1008.00 1006.78 1006.61 1007.08 1007.12 1007.13 1008.13 1008.69 1009.50 1010.37 1010.40 1010.72 1011.20 1011.88 1012.64 1013.55
1019.23 1019.05 1018.98 1018.74 1018.65 1018.44 1018.11 1018.06 1018.04 1017.69 1017.25 1016.96 1016.45 1016.02 1015.73 1015.20 1013.01 1010.70 1011.37 1011.58 1011.81 1011.77 1010.22 1009.76 1009.35 1009.07 1008.34 1008.22 1007.99 1007.69 1006.69 1007.27 1007.35 1007.61 1007.73 1007.80 1008.39 1009.05 1009.57 1009.59 1009.80 1010.23 1011.19 1012.39 1013.39
1019.07 1018.91 1018.77 1018.55 1018.48 1018.26 1018.01 1017.93 1017.84 1017.52 1017.10 1016.82 1016.40 1015.90 1015.48 1014.26 1011.33 1010.72 1011.21 1011.60 1011.89 1011.28 1010.14 1009.59 1009.14 1008.57 1007.77 1007.62 1008.00 1007.62 1007.51 1007.64 1007.58 1007.97 1007.97 1007.83 1008.24 1008.73 1009.06 1008.85 1009.61 1010.08 1010.89 1011.86 1012.92
1018.95 1018.66 1018.58 1018.34 1018.24 1018.03 1017.95 1017.82 1017.62 1017.41 1017.00 1016.77 1016.36 1015.92 1014.80 1012.55 1010.36 1010.83 1011.39 1011.54 1011.26 1010.78 1009.74 1009.16 1008.64 1007.99 1007.18 1007.51 1007.95 1007.81 1007.64 1007.81 1007.93 1008.01 1007.85 1008.08 1008.14 1008.43 1008.62 1009.11 1010.13 1010.26 1011.12 1011.66 1012.55
1018.67 1018.43 1018.21 1018.16 1017.96 1017.91 1017.91 1017.73 1017.45 1017.26 1016.83 1016.63 1016.30 1015.99 1014.27 1011.10 1010.43 1010.61 1010.69 1010.86 1010.26 1010.06 1009.62 1009.35 1008.71 1008.50 1007.64 1007.71 1007.75 1007.81 1007.76 1007.75 1008.00 1008.04 1008.31 1008.11 1008.12 1008.74 1008.25 1008.98 1009.75 1010.48 1010.87 1011.66 1012.39
1018.37 1017.97 1017.95 1017.81 1017.82 1017.76 1017.74 1017.52 1017.28 1016.91 1016.58 1016.42 1016.23 1015.47 1013.30 1010.59 1010.45 1010.58 1010.73 1010.23 1010.25 1009.98 1009.55 1009.54 1009.43 1008.76 1008.17 1007.66 1007.93 1007.72 1007.44 1007.67 1008.05 1008.32 1008.42 1008.46 1008.31 1008.42 1008.37 1009.05 1009.67 1010.55 1011.01 1011.68 1012.51
1017.77 1017.74 1017.54 1017.59 1017.63 1017.50 1017.48 1017.15 1017.04 1016.59 1016.31 1016.15 1016.01 1014.84 1011.63 1010.43 1010.47 1010.49 1010.35 1010.17 1010.39 1010.30 1010.16 1009.91 1009.69 1008.87 1008.26 1008.06 1007.67 1006.88 1006.95 1006.53 1007.94 1008.33 1008.98 1008.70 1006.92 1007.43 1008.12 1008.95 1009.55 1010.19 1011.09 1011.98 1012.73
1017.39 1017.36 1017.31 1017.37 1017.35 1017.19 1017.14 1016.79 1016.62 1016.23 1016.02 1015.90 1015.27 1013.79 1010.26 1010.92 1010.17 1009.77 1009.89 1009.34 1009.85 1010.16 1010.20 1010.21 1009.46 1008.37 1008.16 1006.99 1006.17 1006.52 1006.07 1006.90 1007.83 1008.49 1008.57 1008.74 1007.31 1008.37 1009.17 1009.21 1009.51 1010.08 1011.14 1012.11 1012.85
1017.17 1017.09 1017.06 1017.06 1016.91 1016.98 1016.77 1016.50 1016.20 1015.98 1015.48 1014.92 1014.13 1013.08 1010.09 1009.58 1009.55 1009.57 1009.72 1009.60 1009.34 1009.64 1009.73 1009.36 1008.38 1007.39 1006.73 1006.22 1005.54 1006.14 1006.51 1007.35 1007.65 1008.59 1008.53 1008.23 1007.95 1008.29 1009.35 1009.60 1009.65 1010.38 1011.21 1011.97 1012.64
1016.98 1016.79 1016.87 1016.72 1016.68 1016.72 1016.21 1015.72 1015.36 1014.49 1013.56 1012.09 1011.59 1010.82 1009.79 1009.51 1009.51 1009.07 1009.27 1009.28 1009.08 1008.94 1007.86 1008.20 1007.34 1006.57 1007.00 1007.34 1007.31 1007.50 1007.51 1007.66 1008.28 1008.94 1008.61 1008.65 1008.60 1008.98 1009.64 1009.88 1010.32 1010.85 1011.38 1011.95 1012.49
1016.68 1016.64 1016.53 1016.39 1016.48 1016.35 1015.39 1013.47 1012.65 1012.58 1011.38 1011.22 1011.03 1010.59 1009.96 1009.77 1008.88 1008.64 1009.00 1008.58 1008.18 1007.61 1007.96 1007.83 1007.14 1007.84 1008.01 1007.97 1007.92 1007.92 1007.83 1007.71 1008.44 1009.20 1009.07 1008.84 1008.53 1009.39 1009.87 1010.19 1010.68 1010.78 1011.15 1011.65 1012.15
1016.60 1016.34 1016.22 1016.16 1016.29 1016.04 1014.00 1012.85 1012.45 1012.26 1010.99 1010.49 1010.22 1009.68 1009.17 1009.43 1008.45 1008.25 1008.44 1008.08 1007.70 1007.59 1007.54 1007.15 1007.91 1008.67 1008.35 1008.25 1008.07 1008.32 1008.52 1008.65 1008.90 1009.24 1009.25 1009.11 1008.29 1009.09 1009.76 1010.12 1010.71 1011.00 1011.24 1011.53 1011.67
1016.41 1016.04 1015.99 1016.02 1016.22 1013.99 1012.96 1012.62 1012.66 1012.51 1010.45 1010.02 1009.54 1009.15 1009.27 1008.88 1008.39 1008.73 1008.61 1008.14 1007.77 1007.41 1007.81 1007.79 1008.63 1008.63 1008.36 1008.49 1008.60 1008.21 1009.41 1009.46 1009.31 1009.23 1008.43 1009.50 1007.86 1008.69 1009.65 1009.80 1010.10 1010.42 1010.61 1010.83 1011.27
1016.03 1015.79 1015.74 1016.07 1014.06 1012.95 1012.73 1012.65 1012.55 1012.37 1009.82 1009.79 1009.06 1009.11 1008.78 1008.26 1008.14 1008.59 1008.85 1008.14 1007.76 1007.95 1008.31 1008.40 1008.46 1008.50 1008.28 1009.05 1009.35 1009.69 1009.97 1009.80 1009.71 1009.18 1009.10 1009.34 1008.72 1009.08 1009.72 1009.60 1009.99 1010.27 1010.50 1010.73 1011.01
1015.72 1015.54 1015.67 1015.18 1013.97 1012.66 1012.65 1012.69 1012.39 1011.11 1009.59 1009.28 1008.75 1008.46 1008.27 1008.25 1008.20 1008.48 1008.43 1008.59 1008.78 1008.35 1008.08 1008.52 1009.22 1008.94 1009.19 1009.80 1009.90 1010.17 1009.81 1009.90 1009.82 1009.34 1008.67 1009.92 1009.70 1008.73 1009.10 1009.75 1009.95 1010.25 1010.39 1010.56 1010.77
1015.30 1015.22 1015.58 1013.94 1012.65 1012.89 1012.63 1011.91 1010.85 1009.48 1010.21 1009.38 1008.73 1008.44 1007.99 1008.05 1008.25 1008.27 1008.41 1008.55 1008.31 1008.35 1008.30 1008.78 1009.09 1009.62 1009.78 1009.25 1009.60 1009.57 1009.51 1008.63 1008.95 1008.84 1008.98 1010.18 1009.80 1009.53 1010.05 1010.29 1010.26 1010.07 1010.18 1010.40 1010.82
1015.46 1015.28 1014.80 1013.62 1013.34 1013.20 1012.26 1010.93 1009.92 1010.38 1009.87 1009.91 1009.35 1008.84 1008.29 1008.25 1008.30 1008.60 1008.63 1008.58 1009.09 1008.69 1008.27 1008.33 1009.23 1009.53 1010.01 1009.78 1009.67 1010.25 1010.38 1010.33 1010.02 1009.86 1009.56 1010.14 1009.66 1009.78 1010.48 1010.50 1010.54 1010.45 1010.47 1010.44 1011.15
1015.45 1014.42 1013.28 1013.25 1013.39 1013.12 1011.65 1010.19 1010.24 1010.46 1010.63 1010.13 1009.40 1008.50 1008.25 1008.49 1008.39 1008.52 1008.67 1008.69 1008.96 1009.25 1008.94 1008.85 1008.98 1010.09 1010.32 1010.35 1010.71 1010.62 1010.70 1011.69 1011.31 1011.23 1010.19 1010.05 1009.92 1009.38 1010.21 1010.22 1010.32 1010.21 1010.14 1010.40 1011.20
1014.31 1013.11 1012.66 1013.22 1013.38 1012.52 1010.96 1010.78 1011.10 1011.42 1011.06 1010.41 1009.02 1008.74 1008.04 1008.21 1008.54 1008.51 1008.78 1009.39 1009.52 1009.94 1010.08 1009.55 1009.49 1010.20 1010.95 1010.89 1011.31 1011.14 1011.81 1011.53 1011.14 1011.12 1010.70 1009.97 1009.87 1009.28 1009.79 1009.65 1009.73 1009.70 1009.84 1010.37 1011.24
1013.98 1012.52 1012.93 1013.09 1012.94 1011.59 1010.60 1010.81 1011.36 1011.60 1011.35 1010.70 1009.93 1009.13 1008.46 1008.44 1008.50 1008.64 1009.01 1010.16 1010.51 1010.51 1010.51 1010.41 1010.46 1010.63 1011.03 1010.65 1010.53 1011.13 1010.90 1012.10 1012.43 1012.33 1011.90 1010.71 1010.03 1010.11 1010.59 1010.58 1010.51 1010.40 1010.41 1010.84 1011.12
1013.95 1012.14 1012.82 1012.83 1011.88 1011.42 1010.82 1011.46 1012.27 1011.61 1011.24 1010.91 1010.59 1009.92 1009.18 1009.26 1008.98 1009.12 1009.52 1010.58 1011.52 1011.43 1010.94 1011.11 1010.91 1010.40 1010.47 1011.47 1011.63 1011.45 1011.62 1012.07 1012.25 1012.37 1011.86 1012.03 1011.03 1010.97 1011.04 1010.97 1011.17 1011.09 1010.99 1011.11 1011.97
1014.10 1012.93 1012.81 1012.49 1011.27 1011.16 1011.84 1011.77 1011.89 1011.59 1011.31 1010.96 1010.51 1010.27 1009.95 1009.59 1009.68 1009.85 1010.43 1011.59 1011.93 1011.90 1011.99 1011.92 1011.51 1011.08 1011.39 1011.76 1011.92 1011.51 1012.29 1012.75 1013.12 1013.22 1012.36 1012.07 1011.05 1010.96 1011.24 1011.27 1011.51 1011.56 1011.49 1012.05 1012.50
1014.91 1012.89 1012.62 1012.27 1012.13 1011.30 1011.60 1011.54 1011.58 1011.97 1011.67 1011.45 1010.97 1010.60 1010.12 1009.78 1009.93 1010.09 1010.65 1011.72 1012.26 1012.69 1013.29 1012.78 1011.92 1011.19 1010.89 1011.06 1011.20 1011.79 1012.29 1012.74 1013.03 1012.83 1012.32 1011.80 1011.52 1011.44 1011.64 1011.85 1011.88 1012.20 1012.43 1012.35 1012.45
1015.48 1014.31 1014.10 1012.23 1012.01 1011.78 1011.78 1011.80 1011.66 1011.64 1011.73 1011.48 1010.94 1010.58 1010.10 1009.92 1009.90 1010.13 1010.76 1011.59 1012.29 1013.05 1013.12 1012.66 1011.81 1011.81 1011.89 1012.04 1012.08 1012.16 1012.31 1012.67 1012.86 1012.78 1012.84 1012.42 1012.11 1011.90 1012.36 1012.58 1012.80 1012.93 1012.84 1012.76 1012.88
1015.93 1014.96 1014.33 1013.34 1012.98 1012.11 1012.43 1011.99 1011.84 1011.81 1011.69 1011.20 1011.07 1010.77 1010.69 1010.34 1010.27 1010.18 1010.70 1011.18 1011.52 1012.63 1012.71 1012.82 1012.48 1012.21 1012.32 1012.71 1012.68 1012.45 1012.60 1012.79 1012.86 1012.89 1012.88 1012.54 1012.18 1012.56 1012.85 1012.76 1013.00 1013.19 1013.28 1013.32 1013.63
1017.35 1016.73 1015.38 1014.11 1013.27 1012.38 1012.05 1012.18 1012.17 1012.37 1012.05 1011.89 1011.73 1011.29 1011.25 1011.32 1011.23 1011.45 1011.68 1012.03 1012.21 1012.22 1012.52 1012.58 1012.64 1012.58 1012.24 1012.96 1013.00 1012.62 1012.16 1012.54 1012.80 1012.85 1012.94 1012.83 1012.73 1013.06 1013.01 1013.53 1013.83 1013.97 1014.01 1014.29 1014.59
Wind_Speed
8 5 7 7 8 7 8 9 10 9 10 10 10 12 12 13 17 11 11 4 1 10 4 4 6 6 10 9 5 5 7 6 6 4 8 10 10 5 3 6 8 8 2 6 15
8 6 8 7 9 8 8 8 10 10 11 10 11 13 12 12 14 9 3 2 3 6 11 10 13 11 11 4 3 9 6 4 4 1 1 8 10 11 7 8 9 9 6 4 13
9 8 8 8 9 9 8 8 10 10 10 10 11 13 12 13 9 4 4 4 2 8 3 4 6 10 11 5 5 1 5 5 1 4 5 4 9 8 10 9 8 11 10 12 12
9 9 9 8 9 10 8 9 10 11 9 10 12 14 14 8 1 5 6 7 4 9 6 7 8 11 10 7 2 9 1 3 4 2 6 8 7 10 12 1 5 8 8 14 14
10 9 9 8 9 10 9 10 9 11 9 10 11 12 10 7 3 7 8 10 10 8 6 6 8 6 7 1 4 7 1 1 2 3 7 6 10 11 9 9 3 6 8 12 12
9 9 8 9 9 11 10 10 9 10 8 9 10 13 7 4 4 3 8 9 6 8 4 3 2 4 1 1 5 1 2 2 1 3 3 8 6 6 4 9 9 7 9 12 12
9 8 8 8 10 10 10 10 10 9 8 8 8 7 6 7 2 4 7 5 3 4 3 2 5 7 2 6 0 4 8 6 4 3 2 7 8 12 14 3 9 7 8 11 10
7 8 7 9 10 9 10 10 10 8 8 8 5 7 5 3 2 6 8 6 4 5 5 5 5 6 5 2 6 7 8 10 7 5 3 8 9 5 7 7 11 7 8 10 10
5 6 8 9 9 9 10 10 10 6 4 4 5 5 7 5 4 2 8 1 6 6 3 2 6 3 5 12 10 6 8 6 7 1 4 10 10 9 6 10 10 6 8 9 11
4 5 6 8 9 9 9 8 2 5 5 6 5 6 3 3 3 2 5 3 3 9 8 7 7 8 8 7 6 7 3 6 6 4 5 7 12 4 5 7 7 3 6 7 9
5 4 6 7 6 7 8 6 7 7 6 6 3 6 2 5 2 6 5 6 5 8 6 5 11 3 8 3 5 3 3 2 5 3 4 3 6 5 6 3 3 5 6 6 7
6 5 5 4 4 6 7 5 4 7 4 4 6 7 5 3 4 5 5 7 8 5 5 8 9 5 3 5 3 1 3 5 2 4 9 2 6 2 6 4 1 1 4 4 7
7 5 3 2 3 4 5 2 3 4 6 5 3 4 2 6 3 7 5 3 5 7 2 7 11 4 6 7 4 5 9 8 9 1 2 6 11 1 5 4 4 3 2 3 4
8 5 2 5 2 4 5 5 3 4 7 8 7 5 5 4 5 2 1 3 5 2 2 3 3 7 7 5 6 2 6 7 8 9 5 3 3 7 3 6 6 9 8 7 6
8 3 5 9 2 4 6 1 3 5 6 6 7 4 4 6 5 4 0 5 2 5 6 6 9 9 4 8 4 8 5 6 5 4 8 9 10 10 2 5 6 6 6 5 5
8 3 8 5 3 3 4 4 5 8 4 6 4 7 10 7 4 5 3 3 2 1 3 10 3 3 9 5 3 3 6 3 4 4 6 7 8 12 4 2 4 4 7 5 5
12 6 7 3 3 4 2 5 7 5 3 5 4 6 8 9 7 6 7 6 5 8 11 9 6 8 2 5 7 4 10 2 3 3 4 6 8 9 4 1 6 6 7 7 4
9 9 5 3 2 6 5 6 4 3 2 3 2 6 10 9 6 6 6 6 3 8 8 9 10 7 1 5 6 6 8 7 8 7 10 5 4 8 3 4 7 10 10 9 2
4 4 4 3 3 4 7 6 3 3 4 4 5 10 9 8 4 7 5 1 1 5 6 6 3 7 2 2 5 4 4 3 6 5 7 5 2 11 1 5 9 11 11 9 5
2 3 4 4 2 5 7 5 3 2 5 3 2 6 12 13 9 7 7 2 3 2 2 2 3 3 7 5 8 5 4 4 3 7 9 9 5 4 11 9 10 9 9 6 8
2 5 6 2 4 6 7 5 3 3 5 4 3 2 5 6 9 7 3 6 2 2 3 3 4 8 6 5 3 6 6 1 5 4 9 8 10 10 9 12 13 13 13 5 4
2 5 4 3 6 3 6 3 1 1 1 1 4 1 0 4 7 8 4 3 3 2 4 3 4 4 2 4 1 3 3 3 6 8 4 7 7 5 11 12 11 12 7 3 4
2 3 3 4 6 8 4 5 0 2 3 2 1 2 1 3 3 3 3 3 1 4 2 5 3 4 8 8 5 5 3 1 1 4 9 8 7 14 11 8 8 7 7 4 3
4 4 4 2 2 5 8 7 6 2 4 3 3 2 3 3 2 6 5 3 3 2 3 2 2 6 8 9 5 4 6 3 5 6 9 12 13 10 9 9 8 8 6 6 6
3 3 5 6 7 7 8 4 7 5 4 3 4 5 2 3 3 4 3 7 5 5 2 3 2 2 3 4 1 1 3 4 7 9 8 13 13 9 9 8 7 6 5 5 7
4 3 4 4 3 9 5 8 6 6 4 6 6 4 4 2 3 3 3 2 3 4 2 0 2 3 4 2 2 5 3 5 5 8 8 12 14 7 6 6 8 8 8 10 11
2 1 6 3 5 7 7 7 5 2 4 1 4 6 7 4 4 6 7 5 4 0 4 2 5 5 4 1 4 9 4 5 6 8 8 13 13 9 5 7 8 7 8 9 9
Wind_Direction
292 308 300 304 304 311 315 333 323 318 309 315 329 321 328 331 304 244 257 272 184 121 225 236 214 253 269 267 267 269 247 130 113 188 102 140 191 142 115 166 198 183 334 50 136
292 295 293 303 299 303 315 329 311 311 308 321 327 319 326 324 298 260 60 12 251 197 204 213 230 237 247 241 209 262 286 79 23 35 241 163 203 153 187 192 197 204 189 154 152
286 289 288 293 296 297 310 314 303 302 307 322 323 316 317 306 270 69 77 188 194 273 227 207 227 227 235 228 174 181 287 51 303 280 279 205 207 174 213 195 218 209 178 161 170
280 281 284 287 291 293 301 299 296 298 312 325 321 315 313 260 302 61 22 157 215 251 192 179 197 199 222 214 181 265 318 291 23 298 223 216 209 203 220 277 315 196 166 173 180
273 276 279 287 285 288 292 288 293 299 319 324 316 317 300 232 62 82 128 151 180 199 202 191 195 225 231 193 197 234 36 347 219 210 215 203 223 231 214 219 138 198 186 190 177
273 270 276 279 283 283 287 289 297 299 315 314 310 313 272 116 54 127 163 168 203 213 173 204 323 325 12 179 252 0 284 109 188 162 208 231 210 228 230 212 212 237 199 188 181
268 274 271 280 279 281 288 289 287 293 306 299 301 287 268 40 79 134 179 209 201 237 187 234 300 273 29 169 272 184 214 181 63 161 126 246 202 233 252 174 230 212 201 181 184
274 271 277 273 274 278 279 279 284 292 297 288 268 262 282 112 253 233 202 220 212 233 284 303 264 282 260 69 195 212 215 208 75 185 120 222 257 153 257 244 244 201 191 185 184
289 277 270 267 268 268 272 281 278 285 269 249 231 261 112 138 193 91 191 188 171 204 217 256 230 291 188 224 179 178 66 76 113 332 166 228 271 58 339 264 250 223 197 191 167
303 278 271 259 260 270 276 266 298 239 200 218 262 239 194 31 4 124 170 204 148 142 161 216 215 221 203 251 345 33 118 108 52 75 240 218 259 2 2 305 243 223 203 204 195
321 296 262 259 259 271 264 213 210 185 210 312 13 315 52 340 240 173 160 170 166 228 200 176 243 297 35 31 30 44 29 33 104 78 264 314 286 335 350 285 183 211 204 198 210
347 305 276 259 252 250 258 254 21 20 215 222 265 275 272 291 189 156 185 207 209 180 188 203 233 84 122 117 146 303 305 43 157 43 280 290 274 329 22 44 336 213 176 191 198
337 328 295 226 216 235 240 238 349 301 248 156 216 261 111 214 154 130 232 174 194 187 218 297 77 123 175 171 194 51 351 344 329 347 205 286 233 174 63 95 133 179 179 181 201
331 338 239 187 172 154 198 161 283 262 217 139 183 137 183 238 170 17 276 277 192 213 166 37 99 178 190 104 314 333 5 313 299 274 342 338 352 125 61 107 109 136 143 152 176
336 314 211 220 38 215 66 272 262 213 195 118 133 90 186 242 105 138 339 250 83 120 243 89 144 170 173 55 340 48 352 342 307 258 225 56 273 105 167 155 130 137 154 179 190
342 266 176 203 237 352 308 164 215 226 124 148 167 186 187 191 140 119 179 77 25 187 182 104 94 333 84 96 50 131 266 224 217 216 213 38 310 94 82 352 158 183 211 213 220
348 179 201 299 64 337 220 214 198 255 142 129 162 195 212 169 149 183 170 165 219 175 157 157 125 116 179 173 158 302 342 292 287 331 11 23 267 48 25 219 286 274 235 227 180
352 155 197 299 309 309 221 226 199 81 74 97 216 191 201 171 159 161 176 169 206 262 163 190 170 181 95 341 12 41 332 13 336 350 343 118 11 78 29 296 277 269 269 276 230
330 183 179 50 315 222 239 214 68 61 13 345 190 198 170 175 240 192 216 213 153 216 248 211 137 119 64 131 310 103 21 13 305 188 266 39 65 225 213 280 254 260 260 253 244
269 207 103 345 283 239 235 61 106 31 330 285 233 256 182 178 201 215 177 113 146 217 300 140 225 212 138 161 74 339 103 289 282 336 324 347 299 315 347 336 331 281 273 263 245
245 199 72 324 244 221 215 109 133 96 343 321 9 173 229 162 225 197 155 108 21 138 217 194 272 136 192 218 352 172 183 64 276 330 323 318 330 38 357 339 325 319 329 297 241
302 190 50 260 208 244 201 156 355 15 318 298 296 319 183 183 194 218 237 39 20 296 216 136 266 239 68 86 348 322 17 329 331 342 332 281 304 48 346 330 332 331 336 62 8
347 46 96 264 202 201 124 145 262 276 324 312 317 354 52 103 158 178 151 82 62 216 211 176 198 198 172 174 181 237 137 97 7 272 299 310 296 8 351 358 21 6 24 49 340
272 171 146 177 349 223 183 195 203 174 274 273 301 259 194 132 81 142 144 97 109 101 33 268 169 275 294 39 57 176 194 221 273 286 329 308 344 335 12 358 18 13 359 341 359
329 75 351 176 181 208 199 179 218 217 214 233 205 245 202 178 157 122 126 141 133 139 136 276 194 203 89 93 91 320 271 236 274 318 304 331 318 346 6 353 7 352 5 354 7
321 296 172 107 152 174 162 204 209 182 231 175 248 172 198 208 4 135 146 210 81 143 127 43 155 180 159 144 265 281 291 279 274 311 299 313 303 37 10 2 32 31 11 5 13
59 167 287 156 167 210 177 167 174 200 174 330 310 238 205 65 34 61 65 70 67 183 132 182 149 211 268 140 267 258 293 297 303 292 326 309 348 339 353 41 27 13 12 10 8